Погода в Мугалжаре

Погода в Мугалжаре : погода сейчас, прогноз погоды и архив. Всё, что Вы хотите узнать о погоде в Мугалжаре!

Хотите узнать прогноз погоды в Мугалжаре? Тогда Вам сюда: Погода в Мугалжаре

Поиск расширенной информации на нашем сайте:

Другие новости

Новости СМИ2

Главная страница сайта

Новости сайта

03.07.2017

Напоминаем, что на нашем специализированном сайте Метеоцентр.Азия вы можете получить высокодетализированные автоматические прогнозы погоды по пунктам России, СНГ и мира в авиационном формате (включающие направление и скорость ветра, видимость, явления погоды, количество и форму облачности, нижнюю и верхнюю границу облачности).

Рекомендуем: отзывы кровмаркет

Погода в Мугалжаре - сегодня

Время (UTC), дата Ветер
(°,м/с) 
Видим.   Явления Облачность Т
(°С)
Тd
(°С)
f(%) Тe
(°С)
Pmin
(гПа)
dP
(гПа)
Po
(мм)
O2
(г/м3)
Тmin Tmax R s Состояние
почвы
18 13.12.17 090 (В) 10  20000 м  позёмок  10/0 средняя 
[As op]
-15.8 -19.2 75 -24  1039.7  -0.1  740  318    -11.2       
21 13.12.17 090 (В) 10  20000 м  позёмок  10/0 средняя 
[As op]
-16.6 -20 75 -25  1039.6  -0.2  740  319           
00 14.12.17 090 (В) 20000 м    ясно 
-18 -20.6 80 -26  1040.4  0.6  740  321           
03 14.12.17 090 (В) 20000 м  позёмок  ясно 
-18.4 -21 80 -26  1040.8  0.4  741  322        равномерный
сухой снег
100% 
06 14.12.17 090 (В) 10  20000 м  позёмок  ясно 
-18 -21.4 75 -27  1041.6  0.8  742  322  -18.9         
09 14.12.17 110 (В) 20000 м  позёмок  ясно 
-14.4 -17.7 76 -21  1041.1  741  317           
12 14.12.17 110 (В) 20000 м    5/0 верхняя 
[Ci ing]
-15 -18.4 75 -21  1041.9  0.7  742  318           
15 14.12.17 110 (В) 20000 м  позёмок  ясно 
-16.3 -19.7 75 -23  1040.8  -1.3  741  319    -14       
18 14.12.17 110 (В) 12-16{16}  20000 м  позёмок  ясно 
-15.9 -19.3 75 -25  1040.3  -0.5  740  318    -14       
21 14.12.17 110 (В) 12-16{16}  20000 м  позёмок  ясно 
-15.4 -18.1 80 -25  1039.7  -0.3  740  317           
00 15.12.17 110 (В) 12-16{16}  20000 м  позёмок  ясно 
-15 -17.7 80 -24  1039.3  -0.4  740  317           
03 15.12.17 110 (В) 12-16{16}  20000 м  позёмок  ясно 
-14.2 -17.7 75 -23  1038.8  -0.4  740  316        равномерный
сухой снег
100% 
06 15.12.17 110 (В) 14-18{18}  20000 м  позёмок  ясно 
-15.8 -19.2 75 -26  1040.6  1.4  741  318  -16.2         
09 15.12.17 110 (В) 12-16{18}  20000 м  позёмок  ясно 
-13.6 -17.1 75 -22  1040.2  0.1  741  315           
12 15.12.17 110 (В) 14-18{18}  20000 м  позёмок  ясно 
-13.8 -17.3 75 -23  1040.3  -0.1  741  316           
15 15.12.17 110 (В) 12-16{18}  20000 м  позёмок  ясно 
-15.6 -19 75 -25  1041.7  1.1  741  318    -13.4       
18 15.12.17 090 (В) 14-18{18}  20000 м  позёмок  ясно 
-15 -18.4 75 -25  1040  -1.5  740  317    -13.4       
21 15.12.17 090 (В) 12-16{18}  20000 м  позёмок  ясно 
-16.2 -18.8 80 -26  1040.5  -0.3  740  319           
00 16.12.17 090 (В) 3{16}  20000 м    ясно 
-16.8 -19.4 80 -21  1041.2  0.6  741  320           
03 16.12.17 090 (В) 20000 м    ясно 
-16.2 -19.6 75 -16  1041.5  0.4  741  319  -17.3      равномерный
сухой снег
100% 
06 16.12.17 070 (В) 20000 м    ясно 
-13.4 -17.7 70 -17  1041.1  0.1  741  316  -17.3         
09 16.12.17 110 (В) 20000 м    ясно 
-11 -16.3 65 -16  1038.9  -1.7  740  312           
12 16.12.17 110 (В) 10  20000 м  позёмок  ясно 
-11.2 -16.5 65 -19  1038.9  740  312           
15 16.12.17 110 (В) 12-16{1}  20000 м  позёмок  ясно 
-12.2 -16.5 70 -21  1039.8  0.6  740  314    -10.6       
18 16.12.17 110 (В) 12-16{18}  20000 м  позёмок  ясно 
-13.2 -17.5 70 -22  1039.4  -0.5  740  315    -10.6       
Время (UTC), дата Ветер
(°,м/с) 
Видим.   Явления Облачность Т
(°С)
Тd
(°С)
f(%) Тe
(°С)
Pmin
(гПа)
dP
(гПа)
Po
(мм)
O2
(г/м3)
Тmin Tmax R s Состояние
почвы

Для получения пояснительной информации подведите курсор к названию столбца.

ПОГОДА в Мугалжаре - архив

Всё, что Вы хотите узнать о погоде в Мугалжаре - удобно и подробно!

Выберите нужную дату (начиная с 1 января 2015* года) и нажмите кнопку "Найти".
Будут отображены архивные сводки погоды по пункту Мугалжар, начиная с указанной даты.


Отображать данные в формате CSV (для использования в таблицах Excel)


Внимание! Наш архив погоды предназначен исключительно для личного некоммерческого использования в познавательных целях. Если Вам необходимы официальные справки о состоянии погоды (для производственных, юридических, коммерческих и т.п. целей), обращайтесь в органы Росгидромета.

*Примечание: данная дата относится к архиву по метеостанциям СССР (Россия, СНГ, Балтия).
Архив по метеостанциям Зарубежной Европы и Азии (кроме Китая) хранится 10 дней, по другим регионам земного шара (Китай, Африка, Америка, Австралия, Океания) - 1 день.

Мугалжар - район местоположения метеостанции


Название, широта, долгота, высота метеостанции:
Мугалжар (Мугоджарская) 48.6°ш. 58.5°д. 398 м над ур. моря [Казахстан]

Дополнительная информация

В oтличие oт бoльшинства пoгoдных сайтoв мы публикуем пoдрoбную метеoинфoрмацию в детальнoм прoфессиoнальнoм фoрмате.

Характеристики температуры и влажнoсти вoздуха измеряются на высoте 2 м в тени вдали oт зданий и деревьев.
Скoрoсть ветра измеряется на высoте 10 м (на урoвне рoста челoвека скoрoсть ветра ниже в 1.5-2 раза). Если метеoстанция нахoдится в гoрoде или в лесу, тo скoрoсть ветра занижена на 2-4 м/с пo сравнению с oткрытым местoм. Скoрoсть ветра над акватoриями крупных рек и oзёр, а также на вершинах хoлмoв на 2-5 м/с выше, чем в oбычных услoвиях.
Атмoсфернoе давление в разных тoчках местнoсти мoжет значительнo oтличаться oт давления на метеoстанции, в зависимoсти oт услoвий рельефа (при пoдъёме на 10 м давление пoнижается примернo на 1 мм рт.ст.).